Location: Arbon
(43.0005°N, 0.7472°E)
Time: 20:22:22
(UTC+00:00)

Tiangong - Pass Details

Date: 02 October 2021
Orbit: 382 x 385 km, 41.5° (Epoch: 18 October)

Event Time Altitude Azimuth Distance (km) Brightness Sun altitude
Exits shadow 04:24:16 57° 226° (SW) 453 1.1 -17.4°
Maximum altitude 04:24:41 67° 179° (S) 417 1.1 -17.3°
Drops below altitude 10° 04:27:49 10° 96° (E) 1,397 5.1 -16.8°
Sets 04:29:53 0° 93° (E) 2,249 6.5 -16.4°
